DW4393 Weather Reports


Display with metric or nautical units.
time (UTC)temp
F
wind
direction
speed
MPH
gust
MPH
rain 1hr
in
rain 24hr
in
rain mn
in
humidity
%
barometer
mb
20260502163803 65 69 0.0 2.0 0.00 0.00 0.00 67 1012.3
20260502163303 64 199 1.0 2.0 0.00 0.00 0.00 70 1012.4
20260502161803 63 78 0.0 0.0 0.00 0.00 0.00 75 1012.5
20260502161303 63 78 0.0 1.0 0.00 0.00 0.00 70 1012.6
20260502160803 63 65 0.0 1.0 0.00 0.00 0.00 73 1012.6
20260502160303 63 309 0.0 2.0 0.00 0.00 0.00 70 1012.5
20260502151803 61 305 0.0 1.0 0.00 0.00 0.00 80 1012.6
20260502151304 61 289 0.0 1.0 0.00 0.00 0.00 80 1012.4
20260502150803 61 289 0.0 1.0 0.00 0.00 0.00 80 1012.6
20260502150303 61 327 0.0 2.0 0.00 0.00 0.00 82 1012.6
20260502130303 55 96 0.0 0.0 0.00 0.00 0.00 94 1012.0
20260502123803 55 96 0.0 0.0 0.00 0.00 0.00 94 1012.1
20260502123303 55 96 0.0 0.0 0.00 0.00 0.00 94 1011.9
20260502121803 55 96 0.0 0.0 0.00 0.00 0.00 94 1011.5
20260502120803 55 96 0.0 0.0 0.00 0.00 0.00 94 1012.1
20260502120304 55 96 0.0 0.0 0.00 0.00 0.00 94 1012.0
20260502114803 55 96 0.0 0.0 0.00 0.00 0.00 94 1011.4
20260502114303 55 96 0.0 0.0 0.00 0.00 0.00 94 1011.3
20260502113803 55 96 0.0 0.0 0.00 0.00 0.00 94 1011.6
20260502113303 55 96 0.0 0.0 0.00 0.00 0.00 94 1011.6
20260502111803 55 96 0.0 0.0 0.00 0.00 0.00 94 1012.2
20260502111303 54 96 0.0 0.0 0.00 0.00 0.00 94 1012.4
20260502110803 54 96 0.0 0.0 0.00 0.00 0.00 94 1012.2
20260502110303 54 96 0.0 0.0 0.00 0.00 0.00 94 1012.2
20260502104803 54 96 0.0 0.0 0.00 0.00 0.00 94 1012.0
20260502104303 54 96 0.0 0.0 0.00 0.00 0.00 94 1011.7
20260502103803 54 96 0.0 0.0 0.00 0.00 0.00 94 1011.4
20260502103304 54 96 0.0 0.0 0.00 0.00 0.00 93 1011.4
20260502101303 55 96 0.0 0.0 0.00 0.00 0.00 94 1010.9
20260502100303 55 96 0.0 0.0 0.00 0.00 0.00 94 1010.8
20260502091303 55 96 0.0 0.0 0.00 0.00 0.00 93 1011.0
20260502090803 55 96 0.0 0.0 0.00 0.00 0.00 93 1010.9
20260502071304 56 96 0.0 0.0 0.00 0.00 0.00 90 1011.8
20260502064803 56 96 0.0 0.0 0.00 0.00 0.00 91 1012.1
20260502064303 56 96 0.0 0.0 0.00 0.00 0.00 91 1012.0
20260502063804 56 96 0.0 0.0 0.00 0.00 0.00 91 1012.1
20260502063303 57 96 0.0 0.0 0.00 0.00 0.00 91 1012.1
20260502061804 57 96 0.0 0.0 0.00 0.00 0.00 91 1012.1
20260502060804 57 96 0.0 0.0 0.00 0.00 0.00 91 1012.1
20260502054804 57 96 0.0 0.0 0.00 0.00 0.00 90 1012.4
20260502054303 57 96 0.0 0.0 0.00 0.00 0.00 90 1012.3
20260502053803 57 96 0.0 0.0 0.00 0.00 0.00 90 1012.4
20260502053303 57 96 0.0 0.0 0.00 0.00 0.00 90 1012.3
20260502051803 57 96 0.0 0.0 0.00 0.00 0.00 90 1012.3
20260502051304 57 96 0.0 0.0 0.00 0.00 0.00 90 1012.3
20260502050803 57 96 0.0 0.0 0.00 0.00 0.00 90 1012.3
20260502050303 57 96 0.0 0.0 0.00 0.00 0.00 90 1012.4
20260502044804 57 96 0.0 0.0 0.00 0.00 0.00 90 1012.4
20260502044303 57 96 0.0 0.0 0.00 0.00 0.00 90 1012.5
20260502043803 57 96 0.0 0.0 0.00 0.00 0.00 90 1012.4
20260502043304 57 96 0.0 0.0 0.00 0.00 0.00 90 1012.4
20260502041803 57 96 0.0 0.0 0.00 0.00 0.00 90 1012.8
20260502041304 57 96 0.0 0.0 0.00 0.00 0.00 90 1012.9
20260502040822 57 96 0.0 0.0 0.00 0.00 0.00 90 1012.9
20260502040304 57 96 0.0 0.0 0.00 0.00 0.00 90 1012.9
20260502034803 58 96 0.0 0.0 0.00 0.00 0.00 89 1013.0
20260502034304 58 96 0.0 0.0 0.00 0.00 0.00 90 1013.0
20260502033804 58 96 0.0 0.0 0.00 0.00 0.00 89 1012.9
20260502033303 58 96 0.0 0.0 0.00 0.00 0.00 89 1012.8
20260502031803 58 96 0.0 0.0 0.00 0.00 0.00 89 1013.0
20260502031303 58 96 0.0 0.0 0.00 0.00 0.00 89 1013.0
20260502030804 58 96 0.0 0.0 0.00 0.00 0.00 89 1013.0
20260502030303 58 96 0.0 0.0 0.00 0.00 0.00 88 1013.0
20260502024803 58 96 0.0 0.0 0.00 0.00 0.00 88 1013.2
20260502024304 58 96 0.0 0.0 0.00 0.00 0.00 88 1013.3
20260502023804 58 96 0.0 0.0 0.00 0.00 0.00 88 1013.2
20260502023303 58 96 0.0 0.0 0.00 0.00 0.00 88 1013.2
20260502021804 58 96 0.0 0.0 0.00 0.00 0.00 89 1013.0
20260502020803 58 96 0.0 0.0 0.00 0.00 0.00 89 1013.0
20260502020304 58 96 0.0 0.0 0.00 0.00 0.00 89 1012.9
20260502014804 58 96 0.0 0.0 0.00 0.00 0.00 89 1012.7
20260502013304 59 96 0.0 0.0 0.00 0.00 0.00 88 1012.6
20260502011804 59 96 0.0 0.0 0.00 0.00 0.00 87 1012.6
20260502011304 59 96 0.0 0.0 0.00 0.00 0.00 87 1012.4
20260502004804 59 96 0.0 0.0 0.00 0.00 0.00 86 1012.6
20260502003805 60 96 0.0 0.0 0.00 0.00 0.00 86 1012.5
20260502003304 60 96 0.0 0.0 0.00 0.00 0.00 86 1012.5
20260502001804 60 96 0.0 0.0 0.00 0.00 0.00 85 1012.3
20260502000804 61 96 0.0 0.0 0.00 0.00 0.00 84 1012.1
20260502000303 61 96 0.0 0.0 0.00 0.00 0.00 83 1011.9
20260501234803 61 96 0.0 0.0 0.00 0.00 0.00 82 1011.8
20260501234304 61 96 0.0 0.0 0.00 0.00 0.00 81 1011.9
20260501233803 61 96 0.0 0.0 0.00 0.00 0.00 81 1011.9
20260501233304 61 96 0.0 0.0 0.00 0.00 0.00 80 1011.9
20260501231804 62 96 0.0 0.0 0.00 0.00 0.00 79 1011.8
20260501231304 62 96 0.0 0.0 0.00 0.00 0.00 80 1011.8
20260501230303 63 96 0.0 0.0 0.00 0.00 0.00 79 1012.1
20260501224804 63 275 0.0 0.0 0.00 0.00 0.00 75 1011.7
20260501224304 63 275 0.0 0.0 0.00 0.00 0.00 74 1011.7
20260501223804 63 275 0.0 0.0 0.00 0.00 0.00 73 1011.5
20260501223304 63 275 0.0 0.0 0.00 0.00 0.00 76 1011.5
20260501221804 64 275 0.0 0.0 0.00 0.00 0.00 74 1011.5
20260501221306 64 275 0.0 0.0 0.00 0.00 0.00 75 1011.6
20260501220801 64 275 0.0 0.0 0.00 0.00 0.00 73 1011.6
20260501214802 64 275 0.0 0.0 0.00 0.00 0.00 68 1012.1
20260501214301 64 275 0.0 0.0 0.00 0.00 0.00 67 1012.1
20260501213802 64 275 0.0 1.0 0.00 0.00 0.00 66 1012.1
20260501213302 65 275 0.0 2.0 0.00 0.00 0.00 67 1012.0
20260501211302 65 297 0.0 1.0 0.00 0.00 0.00 61 1012.2
20260501210802 65 312 0.0 1.0 0.00 0.00 0.00 62 1012.4
20260501210302 65 317 0.0 0.0 0.00 0.00 0.00 65 1012.5
20260501204802 64 317 0.0 0.0 0.00 0.00 0.00 66 1012.8
20260501204302 64 317 0.0 0.0 0.00 0.00 0.00 69 1012.9
20260501203802 64 317 1.0 1.0 0.00 0.00 0.00 64 1013.0
20260501201802 64 325 0.0 0.0 0.00 0.00 0.00 67 1013.1
20260501201303 64 325 0.0 0.0 0.00 0.00 0.00 62 1013.1
20260501200802 64 325 0.0 1.0 0.00 0.00 0.00 69 1013.0
20260501200302 64 325 0.0 1.0 0.00 0.00 0.00 65 1013.0
20260501194302 64 167 0.0 0.0 0.00 0.00 0.00 66 1012.9
20260501193302 64 167 0.0 1.0 0.00 0.00 0.00 65 1013.1
20260501191803 64 167 0.0 0.0 0.00 0.00 0.00 67 1013.1
20260501190803 64 251 0.0 1.0 0.00 0.00 0.00 64 1013.3
20260501184802 63 247 0.0 0.0 0.00 0.00 0.00 69 1013.5
20260501184302 63 247 0.0 2.0 0.00 0.00 0.00 67 1013.5
20260501183802 63 246 0.0 2.0 0.00 0.00 0.00 67 1013.8
20260501183302 62 229 0.0 1.0 0.00 0.00 0.00 67 1013.9
20260501181801 62 211 0.0 2.0 0.00 0.00 0.00 65 1013.7
20260501180802 62 207 0.0 0.0 0.00 0.00 0.00 68 1013.8
20260501180302 62 207 0.0 2.0 0.00 0.00 0.00 63 1013.8
20260501174802 62 44 0.0 1.0 0.00 0.00 0.00 66 1013.7
20260501174302 62 44 0.0 0.0 0.00 0.00 0.00 68 1013.9
20260501173803 62 44 0.0 1.0 0.00 0.00 0.00 68 1014.0
20260501171802 61 306 0.0 0.0 0.00 0.00 0.00 68 1014.0
20260501171302 61 306 0.0 0.0 0.00 0.00 0.00 67 1013.9
20260501170802 61 306 0.0 0.0 0.00 0.00 0.00 69 1014.0
20260501170302 61 306 0.0 1.0 0.00 0.00 0.00 69 1013.9